Location: Aulus
(42.7909°N, 1.3399°E)
Time: 00:37:51
(UTC+00:00)

USA 59 Rocket - Pass Details

Date: 19 May 2025
Orbit: 373 x 1695 km, 63.3° (Epoch: 18 June)

Event Time Altitude Azimuth Distance (km) Brightness Sun altitude
Exits shadow 22:09:51 11° 48° (NE) 1,413 2.1 -23.0°
Drops below altitude 10° 22:09:55 10° 48° (NE) 1,443 2.1 -23.0°
Sets 22:11:50 0° 42° (NE) 2,257 3.2 -23.2°
